Terminal Aerodrome Forecast
Issued by NWS

Home | Current Version | Previous Version | Text Only | Print | Product List | Glossary On
Versions: 1 2 3 4 5 6 7 8 9 10 11 12 13 14 15 16 17 18 19 20 21 22 23 24 25 26 27 28 29 30 31 32 33 34 35 36 37 38 39 40
000
FTUS46 KOTX 302320
TAFCOE
TAF
KCOE 302320Z 3100/3124 31004KT P6SM OVC006
     FM310200 VRB02KT 3SM -FZDZ BR OVC006
     FM310600 VRB02KT 3SM -FZDZSN BR OVC008
     FM311800 30005KT P6SM OVC012
      AMD LTD TO CLD AND VIS=

USA.gov is the U.S. government's official web portal to all federal, state and local government web resources and services.